Temp
35 33 32 31 33 35 36 36 36 36 35 34 33 31 30 28 27 31 30 29 30 29 27 28 27 27 27 28 29 29 28 28 29 29 31 32 33 32 33 33 33 32 33 33 33 33 32 32 31 31 30 30 30 30 29 29 29 28 27 27 26 26 26 25 26 26 26 26 26 27 27 26 26 26 26 26 26 26 25 25 24 24 24 24 24 24
35 31 32 34 36 37 37 36 36 36 35 35 33 31 30 29 29 32 32 29 31 30 27 28 27 26 28 28 29 29 29 29 29 29 30 32 32 32 33 33 32 33 33 33 33 33 33 32 31 31 30 30 30 29 29 29 28 28 27 27 26 26 26 26 26 26 26 27 27 27 27 27 27 27 27 27 27 26 26 25 25 25 24 24 24 24
32 31 34 37 37 37 37 36 36 35 35 34 34 31 28 30 31 32 34 32 32 31 28 28 28 27 29 29 29 30 29 29 29 29 30 32 32 32 33 33 32 33 33 33 33 33 33 32 31 31 31 30 30 29 29 29 28 28 27 27 26 26 26 26 26 26 27 27 27 27 27 27 27 27 27 27 26 26 26 25 25 25 25 24 24 24
28 32 36 37 36 36 35 35 35 35 34 34 33 29 27 31 31 28 31 34 34 32 29 29 28 27 28 28 28 29 29 30 29 27 28 30 32 33 33 33 33 33 33 33 33 33 33 32 31 31 31 30 30 29 29 29 28 28 27 26 26 26 26 26 26 26 27 27 27 27 27 27 27 27 27 27 26 26 26 25 25 25 25 25 25 25
31 34 37 36 35 35 34 35 36 33 32 34 34 31 29 33 33 29 31 34 33 33 32 29 24 25 26 26 27 27 28 29 28 26 26 29 31 33 33 33 33 33 33 33 33 33 33 33 32 31 31 30 30 30 29 29 29 28 27 26 26 26 26 26 26 26 27 27 26 26 27 27 27 27 27 27 26 26 26 26 26 25 25 25 25 25
34 36 36 35 35 35 34 34 35 33 29 30 34 35 34 35 35 34 34 33 28 27 31 29 22 22 25 26 27 26 26 28 27 25 26 28 30 31 32 33 33 33 33 33 33 33 33 33 32 31 31 31 30 30 30 29 29 28 27 27 26 26 26 26 26 26 26 26 26 26 26 26 27 26 26 27 27 27 27 27 26 25 25 25 25 25
35 36 35 35 35 35 34 33 35 35 29 27 33 38 37 37 36 35 34 30 25 24 31 32 25 21 23 25 27 26 25 26 25 24 25 27 28 29 32 33 32 33 33 33 33 33 33 33 32 31 31 31 30 30 30 30 29 29 27 27 26 26 26 26 26 26 26 26 25 26 26 26 26 26 26 27 27 27 27 27 26 26 26 25 25 25
35 35 34 35 34 34 33 33 35 37 30 28 35 38 37 37 35 34 33 29 28 29 31 33 30 23 22 24 26 25 24 24 24 24 24 24 25 27 29 32 32 32 33 33 33 33 33 33 32 32 31 31 31 30 30 30 30 28 27 27 26 26 26 26 26 25 25 25 25 26 26 27 26 27 27 27 27 27 27 28 27 26 26 26 26 26
36 35 34 35 34 33 33 34 36 36 32 32 36 37 36 36 35 35 33 29 30 29 25 29 31 24 21 24 27 26 25 24 25 26 25 24 24 25 26 28 31 32 33 33 33 33 33 33 32 32 31 30 30 30 30 30 30 28 27 27 26 26 26 26 26 25 25 25 25 26 26 27 27 27 27 27 27 27 27 27 27 27 26 26 26 26
36 35 35 35 34 34 34 36 36 35 34 35 36 36 36 36 35 36 33 29 28 26 22 25 28 24 21 23 25 26 25 25 26 26 26 25 24 25 24 25 29 32 32 33 33 33 33 33 33 32 32 31 30 30 30 30 30 29 27 27 26 26 26 26 25 25 25 25 26 26 27 27 26 27 27 27 27 27 27 27 26 27 27 26 26 26
35 35 35 35 35 35 35 36 36 35 35 36 35 35 34 35 35 34 32 29 25 23 23 25 27 26 22 22 23 25 26 26 27 27 26 26 25 26 25 24 27 31 31 31 33 34 34 33 33 33 32 32 30 30 30 30 29 29 27 27 26 26 26 26 25 25 25 25 26 26 27 27 27 27 27 26 26 26 26 26 26 26 26 26 26 26
35 35 35 35 35 35 35 35 36 36 36 36 36 34 30 29 30 28 27 27 23 22 24 27 29 26 22 22 25 26 27 27 27 27 27 27 26 26 26 25 27 30 30 29 30 32 33 33 33 33 33 32 31 30 30 29 29 29 28 27 26 26 26 26 25 25 25 26 26 26 26 27 27 27 27 26 26 26 26 26 26 26 26 26 26 27
34 35 35 35 36 36 35 33 34 35 36 35 34 29 25 24 24 23 23 24 23 23 26 29 29 25 22 24 27 28 28 28 27 27 27 27 27 26 25 25 27 28 28 28 28 30 32 33 33 33 33 32 31 30 29 29 29 29 28 27 27 26 26 26 26 25 26 26 26 26 26 26 26 27 27 26 26 26 26 26 26 26 26 26 26 27
29 33 35 35 35 35 35 32 29 31 34 34 31 26 24 23 22 22 23 23 23 23 26 30 29 23 21 25 28 28 28 28 27 26 25 25 26 26 25 25 26 27 27 28 28 29 31 33 33 33 32 32 32 30 29 29 28 28 28 27 27 26 26 26 26 26 26 26 26 26 26 26 26 26 26 26 26 26 26 26 26 27 26 26 26 27
24 26 32 34 33 34 36 34 32 32 34 34 35 31 26 24 23 22 23 23 23 23 25 28 27 22 21 25 28 27 26 27 26 25 25 24 25 26 27 26 26 26 26 27 28 28 29 32 33 33 32 32 32 31 30 29 28 28 28 27 27 26 26 26 26 26 26 26 26 26 26 26 26 26 26 26 26 27 26 26 27 27 27 27 27 27
24 24 33 35 34 35 35 35 36 35 32 34 38 32 26 28 27 24 24 24 23 23 24 24 24 24 26 28 28 27 25 26 26 26 26 25 25 25 26 26 25 25 26 26 26 27 27 30 32 33 32 31 31 32 30 29 28 28 28 27 27 26 26 26 26 26 26 26 26 26 26 26 26 26 26 26 26 27 27 27 27 27 27 28 27 27
24 25 34 36 34 36 35 35 37 34 30 32 32 28 30 36 32 24 23 25 24 23 24 24 23 24 26 26 27 27 26 26 26 26 26 25 24 24 25 24 23 25 26 26 26 26 26 28 30 31 33 32 32 32 31 29 28 28 28 27 27 27 27 27 26 26 26 26 26 26 26 26 26 26 26 27 27 27 27 27 27 27 27 28 28 28
27 25 33 36 33 35 36 35 36 36 34 31 28 29 34 36 34 27 23 23 23 22 23 24 22 22 23 23 27 28 27 26 27 27 26 25 25 24 23 22 23 24 25 25 25 25 25 27 27 28 30 31 31 31 29 28 29 29 28 28 27 27 27 27 27 27 26 26 26 26 26 26 26 27 27 27 27 27 27 28 28 28 28 28 28 28
31 25 29 36 34 34 37 34 32 34 36 33 31 34 33 27 26 26 23 22 23 22 23 23 22 22 22 22 25 27 27 28 28 27 26 25 25 25 23 23 24 24 24 24 25 25 25 25 25 26 27 28 28 28 28 28 29 28 29 29 28 27 27 27 27 27 27 27 27 27 27 26 27 27 27 28 28 28 28 28 28 28 28 28 28 28
34 26 25 33 36 35 35 32 28 30 35 35 34 36 34 29 26 25 25 24 23 22 23 23 22 22 23 24 26 26 26 27 27 27 27 26 25 25 25 24 23 23 23 24 25 25 25 25 25 26 26 27 28 27 27 28 28 26 26 27 28 28 28 27 28 28 27 27 27 27 27 27 27 27 27 28 28 28 28 28 28 28 28 28 28 28
34 29 24 30 36 32 30 31 30 30 32 32 30 30 30 30 30 28 27 26 24 22 22 23 22 21 24 26 27 26 27 27 27 27 27 26 25 25 25 25 23 23 23 24 24 24 25 25 25 25 25 26 27 27 27 28 27 26 26 26 27 28 28 28 28 28 28 28 28 28 28 27 27 27 27 28 28 28 28 28 29 28 28 29 28 29
32 29 25 26 29 27 29 34 35 34 34 32 30 29 29 29 27 25 24 25 25 23 22 23 22 21 24 25 25 25 26 27 27 27 27 25 24 25 25 24 23 23 23 23 23 23 23 24 25 24 24 25 26 27 27 28 28 27 27 26 26 27 27 27 28 28 28 28 28 28 28 28 28 27 27 28 28 28 29 28 29 29 29 29 29 29
33 31 26 24 27 30 33 36 35 34 35 34 33 33 33 31 26 22 22 23 24 23 24 24 22 22 24 24 23 23 23 24 25 25 25 23 23 23 24 23 23 23 22 21 22 22 22 23 24 23 23 24 25 26 26 27 28 27 26 26 26 25 24 25 26 26 28 28 28 28 28 28 28 28 27 28 28 28 29 29 29 29 29 29 29 29
32 30 25 23 28 32 34 35 35 35 35 32 32 34 33 31 29 27 26 25 24 23 23 23 21 22 24 24 24 23 22 22 22 22 23 22 22 22 22 22 22 22 22 21 21 21 22 22 22 23 23 23 23 24 25 25 26 25 25 25 25 25 25 26 25 25 26 27 27 27 27 27 27 28 28 28 28 29 29 29 29 29 29 29 29 29
29 28 26 23 24 26 28 30 30 31 32 31 32 34 34 33 32 30 29 27 24 23 23 23 21 22 23 24 25 24 24 23 22 22 22 22 22 21 22 22 22 22 22 21 21 21 22 22 22 22 23 23 22 23 23 23 23 23 24 24 25 25 25 26 25 24 25 27 27 26 26 26 25 25 26 26 27 28 29 29 29 29 29 29 29 29
30 29 27 23 21 22 23 23 25 27 30 31 32 34 34 33 32 29 26 24 22 23 23 23 21 22 24 26 25 24 24 24 23 23 23 23 22 20 21 21 22 22 21 21 21 21 22 23 23 23 23 23 23 22 22 23 23 22 22 23 24 24 24 24 25 25 25 26 27 27 27 26 24 24 24 25 25 25 26 27 28 29 30 29 29 29
31 30 29 25 23 24 23 25 29 30 28 28 30 32 33 33 33 30 25 22 23 23 23 22 23 23 23 25 24 23 23 23 24 24 23 23 22 21 21 21 21 21 20 20 21 21 22 22 22 23 23 23 23 22 22 22 22 22 22 22 23 23 23 24 24 25 24 25 26 26 25 25 24 24 25 25 24 24 25 24 24 27 29 30 29 29
29 27 29 29 27 28 29 29 32 32 29 28 28 30 31 32 32 29 25 25 26 23 21 23 25 23 23 25 24 23 23 23 23 24 23 23 22 22 21 21 21 21 20 20 20 20 21 21 22 22 22 22 22 22 22 22 22 22 22 22 23 23 23 23 23 24 24 24 24 24 24 24 24 24 25 25 25 25 25 25 24 24 26 28 29 30
29 26 29 30 28 31 33 32 33 32 31 31 30 30 30 31 30 28 26 28 28 24 22 24 25 24 24 26 25 23 23 23 23 24 23 22 22 22 21 21 20 20 21 21 20 20 21 21 21 22 22 22 22 22 22 23 23 23 22 23 23 23 23 23 23 23 23 24 24 23 23 24 25 25 25 25 25 25 26 26 26 25 24 24 26 28
29 26 30 30 28 30 33 32 33 32 30 30 30 31 31 31 31 29 29 30 29 26 26 26 25 25 25 26 25 24 23 23 23 24 23 22 22 22 21 21 20 20 20 20 20 21 21 21 21 21 21 21 22 22 22 22 22 23 22 22 23 23 23 23 23 23 23 23 23 23 24 24 24 24 24 24 24 25 25 25 25 25 24 22 23 25
28 27 31 30 26 27 31 32 32 32 30 29 29 31 31 30 30 30 30 30 29 26 26 26 24 24 25 25 25 24 24 23 23 23 23 22 22 22 21 21 20 19 19 20 20 20 21 21 21 21 21 21 21 21 21 21 22 22 22 22 22 22 22 22 22 22 23 23 22 23 23 23 23 23 23 24 24 24 24 24 24 24 24 24 24 24
29 28 30 29 24 24 29 30 30 31 30 27 27 29 30 29 29 30 30 29 28 26 25 24 23 24 25 25 25 24 24 24 23 23 22 22 22 22 21 21 20 20 19 19 20 20 20 20 21 21 21 20 21 21 21 21 21 21 21 21 21 21 21 22 22 22 22 22 22 22 22 22 22 22 22 22 22 23 23 23 23 23 23 24 24 23
31 29 28 27 23 23 28 30 29 29 26 24 26 29 31 30 30 30 30 29 29 28 26 24 24 25 25 25 25 24 24 23 23 22 22 22 22 22 21 21 21 20 19 19 19 20 20 20 21 21 20 20 20 20 20 20 20 20 20 20 20 20 21 21 21 21 21 21 21 21 22 21 21 21 21 21 21 22 23 23 23 23 23 24 24 24
32 29 28 27 23 22 27 29 28 25 22 23 28 31 31 31 30 29 29 29 29 29 28 26 26 26 25 25 25 24 23 23 22 22 22 22 22 22 21 21 21 21 20 19 19 20 20 21 21 21 20 20 20 20 20 20 20 20 20 20 20 20 20 20 20 20 20 20 20 20 21 21 21 21 21 20 20 21 21 21 22 22 22 23 23 23
31 29 29 28 25 23 26 26 23 21 23 27 30 31 31 31 31 30 30 30 29 29 28 28 26 25 25 25 24 23 22 22 22 22 22 22 22 22 21 21 21 21 20 20 20 20 21 21 22 21 20 20 20 20 20 20 20 20 20 20 19 19 19 19 19 19 19 19 19 19 20 20 21 21 20 20 20 20 20 21 21 21 21 22 21 21
31 30 29 27 26 24 24 23 22 23 27 30 31 30 30 31 30 29 28 29 29 28 28 27 26 25 25 24 24 23 22 22 22 22 22 21 21 21 21 21 21 21 21 20 20 20 20 21 22 21 20 20 20 20 20 20 20 20 19 19 19 19 19 19 18 18 18 18 18 18 19 19 20 20 19 19 20 20 20 20 20 20 21 21 21 21
31 30 28 26 26 25 22 22 23 25 26 28 29 30 30 30 30 28 26 26 28 28 27 27 26 25 24 24 24 23 23 23 22 22 22 21 21 21 21 21 21 21 21 21 20 20 20 20 21 21 21 21 20 20 20 20 19 19 19 19 19 19 19 18 18 18 18 18 18 18 18 18 18 18 18 19 19 19 20 20 20 20 20 20 20 21
31 30 28 25 25 25 23 22 23 23 22 25 28 30 31 30 31 30 26 24 27 28 27 27 25 23 22 23 24 23 22 22 21 21 22 22 22 22 22 21 20 20 20 20 20 20 20 20 21 21 21 21 21 20 20 20 20 20 19 19 19 19 19 18 18 18 18 18 18 18 18 18 18 18 18 18 18 18 18 19 19 19 20 20 20 20
31 31 30 26 24 24 23 21 22 22 22 25 29 31 31 30 31 30 26 23 25 27 27 27 25 23 22 24 24 23 23 22 21 21 21 22 22 23 22 22 21 20 20 20 20 20 20 20 20 21 21 21 21 21 21 21 21 20 20 20 19 19 19 18 18 18 18 18 18 18 17 17 17 18 18 18 18 18 18 19 19 19 20 20 19 19
30 30 29 25 22 23 23 22 23 23 24 27 29 30 31 31 31 28 22 21 25 26 26 26 25 23 23 23 23 23 23 23 21 20 21 22 23 23 23 22 22 21 21 21 21 22 22 22 21 22 22 22 22 21 21 21 21 21 21 20 20 20 19 19 19 18 18 18 18 18 18 18 18 18 18 18 18 18 18 18 19 19 20 20 19 19
27 28 27 25 23 23 23 22 23 24 26 29 30 30 31 30 28 24 21 23 26 26 25 25 24 23 22 22 22 23 23 22 21 21 22 22 22 23 23 23 22 22 21 22 22 23 23 23 23 24 23 23 23 22 21 21 21 21 21 20 20 20 20 19 19 19 19 18 18 18 18 18 18 18 18 18 18 18 18 18 18 19 19 19 19 18
24 25 25 25 24 24 23 23 22 24 26 29 30 30 30 28 24 22 24 26 27 25 25 25 24 23 22 22 23 23 22 22 21 22 22 22 22 23 23 23 22 22 22 22 22 23 23 23 23 24 23 23 23 22 21 21 20 20 20 20 20 20 20 20 20 19 19 19 19 19 19 18 18 18 18 18 18 18 18 18 18 18 18 18 18 17
26 24 23 24 25 24 23 23 22 22 25 29 29 28 27 26 24 25 26 27 27 26 26 25 24 24 23 23 23 23 22 22 22 22 22 22 23 23 23 23 23 23 23 23 23 23 23 23 23 23 22 22 22 21 21 20 20 20 20 20 20 20 20 20 20 20 20 20 19 19 19 19 19 19 18 18 18 18 18 18 18 17 17 17 17 17
28 25 23 25 27 25 22 22 23 24 27 30 29 27 27 27 27 27 27 27 27 27 26 25 24 25 24 23 22 22 22 22 22 22 22 22 23 23 22 23 23 22 22 23 23 23 23 23 22 22 21 21 21 20 20 20 20 20 20 20 20 20 20 20 20 20 20 20 20 20 19 19 19 19 18 18 17 17 17 17 17 17 17 17 17 17
27 27 25 26 28 27 24 24 26 27 29 30 29 28 27 28 28 28 28 28 28 27 26 25 24 24 24 23 22 22 22 22 22 22 22 22 23 23 22 22 22 22 22 22 22 22 22 22 22 22 22 21 20 20 20 20 20 20 20 20 20 20 20 20 20 20 20 20 20 20 20 20 20 19 19 18 18 17 17 17 17 17 17 17 17 17
28 29 27 27 28 28 27 27 27 28 29 29 29 29 28 28 28 28 28 28 28 27 26 25 24 24 23 22 23 23 22 22 22 22 23 23 23 23 22 22 22 22 22 22 22 22 22 22 22 22 22 22 21 21 20 20 20 20 20 20 20 20 20 20 20 20 20 20 20 20 20 20 20 19 19 18 18 18 17 17 17 17 17 17 17 17
29 29 28 28 28 27 25 26 28 29 29 29 28 28 28 28 29 29 28 27 28 28 27 25 25 24 22 22 23 23 23 22 22 23 23 23 23 23 23 23 22 22 22 22 22 22 22 21 21 21 21 21 21 21 21 20 20 20 20 20 20 20 20 20 20 21 21 21 21 20 20 20 19 18 18 18 18 18 17 17 17 17 17 16 16 16
27 28 28 28 28 27 25 26 28 28 29 29 28 28 28 28 28 28 28 27 27 27 27 27 26 24 23 21 22 22 23 23 23 23 23 23 23 23 23 22 22 22 22 22 22 22 21 21 21 20 20 20 20 20 20 20 20 20 19 20 20 20 20 20 21 21 21 21 21 21 20 20 19 18 18 18 18 18 17 17 16 16 16 16 16 16
27 27 28 28 28 27 26 26 27 28 28 29 28 28 28 28 28 28 27 27 27 27 27 27 27 26 25 23 22 22 23 23 23 23 23 22 22 23 22 22 22 21 21 21 21 21 21 21 20 20 20 20 20 20 20 20 20 20 19 19 19 19 20 20 21 21 21 21 21 21 21 21 20 19 18 18 18 17 17 17 17 16 16 16 16 16
27 27 28 28 27 26 27 27 26 27 27 27 28 28 28 27 27 27 27 27 27 26 26 26 27 27 26 25 24 23 23 23 23 23 23 22 22 22 22 22 21 21 21 21 20 20 20 20 20 20 20 20 20 20 19 19 19 19 19 19 19 19 19 19 20 21 21 20 20 20 21 21 20 20 19 19 18 17 17 17 17 17 17 17 17 17
27 28 28 28 27 27 28 28 27 27 27 26 26 27 28 27 27 26 26 27 26 26 26 26 26 26 25 25 25 24 23 23 24 23 23 23 22 22 22 21 21 21 21 21 21 20 20 20 20 20 20 20 20 20 20 20 19 19 19 19 19 19 19 19 20 20 20 20 20 20 20 21 20 20 20 19 19 18 17 17 17 17 17 17 17 17
Height
745 759 765 763 757 748 742 740 739 740 746 756 760 757 756 766 772 768 772 771 766 780 790 788 791 795 792 787 783 780 782 782 781 779 775 771 769 770 769 768 770 771 769 768 769 772 774 777 779 782 785 786 788 790 792 794 796 798 800 803 805 806 808 809 811 812 813 815 816 817 819 821 823 825 826 828 830 831 833 834 835 836 837 837 838 839
747 764 763 750 742 735 734 736 735 737 747 752 754 754 751 761 768 760 763 767 760 773 789 787 791 795 788 785 782 778 782 784 781 781 778 772 770 769 768 769 770 769 766 767 769 771 773 777 779 782 784 786 788 790 792 794 795 798 800 802 804 806 807 809 810 811 812 814 815 816 818 819 821 823 825 826 828 830 832 833 834 835 835 836 837 838
759 762 751 736 731 730 734 738 740 745 751 752 751 752 751 752 759 756 754 758 755 766 785 787 790 794 786 782 782 778 779 780 778 778 775 771 770 769 767 768 769 768 768 768 769 770 772 776 779 782 784 786 788 790 792 794 795 797 800 802 804 805 807 808 809 810 812 813 814 815 817 818 820 822 824 825 827 829 830 832 833 834 835 836 837 837
765 753 738 730 731 740 745 743 746 751 754 755 755 755 752 745 751 760 759 754 752 760 776 784 788 791 789 786 783 778 777 776 777 780 777 772 771 769 765 765 767 768 770 769 769 769 771 775 778 781 783 785 787 790 791 793 795 797 799 801 803 805 806 807 809 810 811 813 814 815 816 817 819 821 823 825 827 828 830 831 832 833 834 835 836 836
758 742 731 734 739 746 752 750 749 757 758 753 750 752 752 742 740 753 756 752 752 756 762 782 803 802 794 796 791 781 780 779 781 787 784 775 770 766 765 764 764 765 767 768 769 769 770 773 777 780 782 784 786 789 791 792 794 796 798 801 802 804 805 807 808 810 811 812 813 814 816 817 819 821 822 824 826 827 829 830 831 832 833 834 835 836
751 737 733 743 746 747 754 755 750 755 761 755 744 741 742 740 737 742 745 748 762 770 763 777 814 818 796 794 795 789 788 786 786 791 788 780 774 770 767 765 763 763 765 766 766 767 768 771 776 779 781 784 786 787 789 791 793 795 798 800 802 803 805 806 808 809 811 812 813 814 815 817 818 820 822 823 825 826 827 829 830 831 832 834 835 835
745 738 739 747 750 750 754 756 747 746 760 760 741 728 730 734 737 739 742 751 766 773 763 760 789 814 808 797 795 794 796 795 793 797 794 786 782 777 769 766 765 764 764 765 765 765 767 771 775 779 780 782 785 786 788 790 792 795 797 800 802 803 805 806 807 809 810 811 813 814 815 816 818 819 821 822 823 825 826 827 829 830 832 833 834 835
742 743 746 749 751 753 754 752 743 739 756 757 735 727 732 735 740 744 748 755 755 754 755 747 754 790 811 804 796 797 802 804 802 802 802 795 789 782 772 767 766 765 763 764 766 765 766 770 773 776 780 782 784 786 787 789 791 794 797 799 801 803 804 805 807 809 810 811 813 814 815 816 818 819 820 822 822 824 825 826 828 829 831 832 833 834
737 744 749 750 752 753 748 743 736 738 751 747 732 734 736 738 745 745 748 753 748 752 763 752 748 780 806 799 793 796 802 808 803 797 800 799 793 788 782 776 768 764 763 762 765 766 765 768 772 775 778 781 784 785 787 788 791 794 797 799 801 802 804 805 806 808 809 811 812 813 815 816 817 818 820 821 822 823 825 826 827 829 830 831 833 834
738 740 741 745 750 750 744 737 735 743 749 739 734 740 739 741 744 743 750 753 753 766 773 759 755 781 808 805 797 799 802 804 798 791 792 793 792 792 791 786 772 764 764 762 762 764 765 767 770 774 776 779 782 784 787 789 790 794 796 798 800 802 803 805 806 808 809 811 812 813 814 815 817 818 819 821 822 823 824 825 827 828 829 830 832 833
738 734 735 741 744 743 741 736 735 740 741 736 740 745 744 746 744 746 752 752 769 783 771 759 753 767 805 817 803 798 797 794 792 788 786 786 787 788 790 788 776 767 766 764 762 762 764 767 769 772 775 777 782 784 786 789 790 793 796 798 800 801 803 804 805 807 808 810 811 812 814 814 816 817 818 820 821 822 824 824 826 827 828 829 831 832
739 742 742 738 735 736 740 740 737 735 734 738 745 749 755 755 753 760 759 761 788 792 765 754 745 757 802 817 799 792 790 786 787 787 784 783 783 782 783 784 776 770 768 766 765 763 763 766 769 771 773 776 781 783 785 789 791 793 795 797 799 801 802 804 805 807 808 810 811 812 813 814 815 816 817 819 820 822 823 824 825 826 827 828 829 831
744 745 741 735 733 734 744 749 743 738 736 742 748 754 767 773 777 788 780 774 786 777 753 742 742 769 805 802 787 788 787 783 784 783 782 780 780 779 780 782 777 771 769 768 768 766 764 766 768 770 772 775 779 782 785 788 790 792 794 796 798 800 801 803 804 806 807 809 810 811 812 813 815 816 816 818 819 820 822 823 824 825 826 827 828 829
752 748 737 740 740 733 742 752 753 749 742 745 749 756 770 779 794 804 788 776 774 760 742 728 743 792 814 794 783 785 783 782 780 781 782 780 778 778 778 781 778 772 771 770 770 769 767 766 767 769 772 774 778 782 785 787 789 791 792 795 797 799 800 802 803 805 806 808 809 811 812 813 814 815 816 817 818 819 821 822 823 824 824 826 827 828
765 767 746 744 747 738 738 742 745 746 742 739 736 745 758 763 781 794 783 780 775 759 745 735 757 800 808 789 782 783 783 781 779 779 779 778 776 774 775 777 776 773 773 772 771 771 769 766 766 769 772 775 777 780 784 786 788 789 791 793 796 798 799 801 802 804 805 807 808 810 811 812 814 814 815 816 817 818 819 820 821 822 823 824 825 826
761 766 742 736 739 738 740 735 732 742 749 737 726 743 755 745 754 767 763 762 762 762 760 757 771 785 782 780 779 781 785 779 778 778 776 777 776 774 776 778 779 777 775 774 774 774 773 769 768 769 772 774 776 779 782 784 786 788 791 793 794 797 798 800 801 803 804 806 808 809 810 812 813 814 815 815 816 817 818 819 820 821 822 822 823 825
762 763 740 734 735 732 737 736 730 741 753 744 738 752 745 725 735 756 761 754 757 774 767 760 783 787 782 791 786 782 788 782 780 781 777 780 779 778 781 782 784 782 777 776 775 775 775 773 771 770 771 774 775 777 780 782 785 787 790 792 793 796 797 799 800 802 803 805 807 808 809 811 812 812 814 814 815 816 817 818 819 819 820 821 822 823
759 766 745 737 745 735 728 735 733 732 741 749 753 750 735 727 734 752 775 777 778 789 766 752 786 799 797 808 795 784 791 786 782 783 781 782 780 781 784 782 782 781 778 777 775 775 776 773 773 773 773 774 775 777 781 782 784 786 788 790 792 794 796 797 799 801 802 804 805 807 808 809 810 811 812 813 813 815 816 816 817 818 819 820 821 821
753 768 753 738 746 739 726 739 748 737 732 741 744 737 741 758 761 762 780 788 788 794 773 761 787 797 797 808 800 793 795 787 782 783 783 784 781 781 783 781 781 781 780 779 776 776 777 775 776 777 776 776 776 780 784 784 784 785 787 789 791 793 795 796 798 799 801 802 803 805 806 808 809 810 811 811 812 813 814 815 815 817 818 818 819 820
749 769 767 743 736 737 735 746 758 749 735 736 738 735 740 754 762 763 768 773 783 795 786 779 799 807 799 798 796 797 796 788 785 784 782 784 782 780 781 781 783 783 782 781 779 777 777 777 778 778 778 778 778 781 784 783 783 787 789 790 790 792 794 796 797 798 800 801 802 803 805 806 807 808 809 810 811 811 812 813 814 815 816 817 818 819
749 764 771 751 735 742 750 750 751 747 742 746 750 750 748 746 749 754 756 756 767 787 790 787 806 816 800 791 794 793 790 788 786 784 782 783 781 780 781 782 784 785 783 782 782 781 779 778 778 779 780 780 780 782 782 781 783 787 791 793 793 793 793 795 796 797 799 800 801 802 803 805 806 807 808 809 809 810 810 811 812 813 814 815 816 817
753 762 769 762 750 752 753 741 738 740 740 749 754 753 754 754 761 776 780 764 755 772 783 783 808 824 805 796 800 795 791 789 784 782 783 785 786 783 782 784 785 787 786 784 783 782 783 782 781 781 782 782 782 782 781 781 782 785 789 793 795 794 794 795 796 797 799 799 800 801 802 803 804 806 807 807 808 808 809 809 810 811 812 813 814 815
751 762 773 771 756 749 745 734 734 738 737 744 750 749 752 756 765 785 794 780 766 772 773 770 800 822 806 796 801 799 800 798 791 789 790 793 795 790 786 786 786 786 788 788 786 784 787 788 786 785 784 784 785 783 782 782 782 784 788 791 794 794 794 796 798 799 799 799 800 801 802 803 804 805 806 806 807 807 807 808 808 810 811 811 812 813
754 766 776 776 760 747 741 733 733 737 741 752 753 747 750 755 759 767 773 775 777 782 778 778 802 818 804 793 796 796 800 802 799 800 800 800 800 796 791 789 787 786 786 787 786 785 786 788 790 790 788 786 786 786 785 784 784 786 788 790 793 794 794 795 798 801 800 799 800 801 802 803 804 804 805 805 805 805 806 806 807 808 809 809 810 811
764 769 776 784 782 770 760 754 752 750 751 757 754 744 745 752 757 762 764 772 785 787 782 790 810 819 806 794 793 794 795 797 798 801 802 802 803 802 796 792 790 789 787 786 785 785 785 785 787 790 790 789 787 787 787 788 790 790 789 790 792 794 794 794 797 802 801 799 799 800 800 803 806 807 805 805 805 805 806 806 806 806 807 808 809 809
767 771 774 788 797 792 789 785 776 767 759 754 750 745 745 751 759 767 772 784 797 791 784 794 810 816 806 795 795 797 796 796 796 798 801 801 803 804 800 797 794 791 791 789 788 789 788 785 786 788 790 790 788 787 788 789 792 793 792 793 795 797 797 796 797 800 800 799 798 798 799 802 807 809 807 805 806 806 806 806 806 806 806 806 807 808
769 773 772 781 787 785 788 782 766 762 764 761 756 752 750 752 755 765 778 790 793 789 791 798 801 806 806 800 800 801 799 798 797 797 799 800 801 802 801 801 798 795 794 793 792 793 791 789 790 790 790 791 790 789 789 789 791 792 793 794 796 797 797 796 796 797 798 797 797 797 798 800 805 807 805 805 806 807 807 808 810 809 806 806 806 806
774 779 772 772 774 770 770 766 756 757 763 764 761 758 756 755 756 766 779 782 781 790 803 801 793 799 805 801 801 802 800 800 798 797 799 800 801 801 800 801 801 799 797 795 796 797 796 794 793 792 792 792 792 792 791 791 792 792 792 793 794 796 795 795 795 795 796 797 797 798 799 801 803 804 803 804 804 805 807 809 811 810 807 806 805 805
776 782 770 766 768 760 756 757 755 757 760 760 761 761 760 760 762 770 774 770 773 788 800 797 793 798 800 795 798 801 799 799 799 797 799 800 801 802 802 803 804 803 801 798 798 799 798 797 795 794 794 793 792 793 792 792 793 792 793 793 793 794 794 794 794 794 794 795 796 797 798 799 800 801 801 801 801 802 803 804 806 807 808 809 807 805
772 778 769 766 767 755 751 756 755 757 761 761 761 762 762 762 763 766 768 766 771 782 787 789 794 796 793 792 795 797 796 797 797 797 798 801 803 803 803 805 806 806 805 803 801 799 798 798 797 797 796 795 794 793 793 792 792 792 792 792 793 794 793 793 793 793 793 793 794 795 796 797 798 799 799 799 800 800 800 800 801 803 807 811 811 807
771 777 767 767 773 765 756 758 757 757 763 764 762 761 761 764 766 765 766 768 774 783 787 789 796 797 792 791 792 793 794 796 797 799 801 802 803 803 804 806 808 808 807 806 803 801 799 798 798 799 798 797 797 796 795 794 793 792 792 792 792 793 792 793 793 793 793 793 793 794 795 796 797 797 798 798 799 800 799 800 801 801 803 805 807 807
769 775 767 768 782 777 761 759 759 756 760 765 765 762 760 764 767 764 766 772 777 784 791 793 796 796 791 790 792 793 794 797 800 802 804 804 804 804 805 806 807 808 808 808 806 803 802 800 800 800 800 799 798 798 797 796 794 794 793 792 792 792 792 792 792 793 793 793 793 794 795 796 796 796 797 797 798 799 799 800 801 801 801 800 801 805
762 773 772 773 783 775 758 755 755 758 773 779 769 758 755 759 763 762 766 771 772 776 786 792 792 791 789 790 793 795 796 799 802 803 805 806 806 806 805 805 805 806 807 808 807 804 803 802 801 801 801 800 799 798 797 796 796 795 794 793 793 792 792 792 792 793 793 792 793 794 794 795 795 795 796 797 797 798 798 799 800 801 801 800 801 802
760 771 774 774 780 777 761 754 760 776 792 785 762 752 754 757 763 769 770 771 771 772 778 783 785 786 788 791 793 797 799 801 803 803 803 805 806 807 807 805 804 804 805 806 806 804 803 802 802 802 802 801 800 799 798 797 796 796 796 795 794 793 793 792 792 793 793 792 793 794 795 795 794 795 796 796 797 797 798 799 800 800 801 801 802 802
762 769 774 774 779 778 764 762 783 798 790 769 755 753 755 756 760 766 768 768 769 772 775 780 785 788 789 791 793 797 800 800 801 803 803 804 806 806 807 807 806 805 804 805 807 806 803 802 802 803 802 802 801 800 799 798 797 797 796 796 796 796 795 794 793 793 794 794 794 795 795 794 794 795 795 795 796 796 797 798 799 800 800 800 801 803
762 765 769 772 776 779 775 779 793 790 769 756 757 757 755 759 763 768 772 772 770 773 777 781 786 788 789 792 795 797 800 800 801 804 804 805 806 807 808 808 807 806 805 805 807 807 805 803 803 804 803 802 801 800 800 799 798 797 797 797 798 798 797 796 795 795 795 795 796 796 796 795 795 795 795 795 795 795 796 797 797 798 799 799 800 800
760 766 769 771 774 778 782 781 777 770 763 760 760 759 759 762 764 770 780 782 775 773 777 780 785 790 792 795 796 797 798 801 805 807 805 805 806 807 808 808 807 807 805 804 806 806 805 805 805 805 803 801 800 801 801 801 800 799 799 800 800 801 801 800 799 799 799 799 799 798 797 796 796 796 796 796 796 796 796 796 797 797 797 798 799 799
752 761 770 778 776 771 776 783 780 781 784 775 763 758 755 756 756 761 777 788 781 773 776 781 787 794 797 797 796 797 801 807 812 810 806 805 805 805 807 809 808 808 806 804 805 806 807 807 807 806 804 800 800 802 803 804 803 802 802 803 804 805 804 803 803 803 802 801 800 799 798 797 798 798 798 797 797 797 796 796 796 796 796 797 798 798
751 757 765 778 781 774 778 789 789 790 791 779 763 755 751 753 754 758 779 796 787 776 778 781 786 794 797 795 794 796 802 810 815 811 804 803 804 804 806 808 808 808 807 804 805 807 808 810 810 807 803 800 801 804 806 807 807 806 806 807 808 807 806 805 806 805 804 803 801 800 799 799 799 798 799 798 797 797 797 796 796 796 796 796 797 797
760 761 766 778 785 781 783 786 779 777 779 770 760 755 751 750 754 771 799 807 789 778 781 782 786 792 793 793 795 797 801 806 810 809 803 801 804 804 805 807 808 808 806 805 806 808 808 809 808 804 801 800 802 806 809 810 810 809 809 810 809 807 806 806 807 806 805 805 803 802 801 800 800 800 800 800 800 799 798 798 797 796 796 796 796 797
770 767 769 775 778 777 783 786 778 772 770 762 755 752 749 752 767 789 804 797 781 780 782 782 788 793 792 793 796 798 799 800 802 804 802 802 805 805 805 807 808 808 807 807 808 808 807 807 805 803 803 804 806 808 811 811 811 811 811 810 809 809 808 808 807 806 806 806 805 804 804 803 803 803 802 803 803 802 801 801 799 798 798 797 798 799
778 776 773 773 775 774 776 778 777 775 769 757 752 751 752 766 786 793 786 776 775 780 781 782 788 791 791 793 794 795 797 798 799 801 802 803 804 804 805 807 808 809 810 810 810 810 809 809 808 807 807 807 808 810 811 812 812 812 812 811 811 811 810 809 808 808 807 807 807 806 806 805 805 805 806 806 805 805 804 804 803 802 801 801 801 802
773 778 775 769 769 774 776 777 783 785 772 755 755 762 765 775 784 781 774 772 773 775 779 784 787 787 789 792 793 794 797 798 799 801 802 803 803 803 806 808 808 809 810 810 811 811 811 811 811 811 811 811 812 812 813 813 813 813 814 813 812 812 812 811 810 810 809 809 809 808 808 808 808 808 808 808 808 807 807 806 806 805 804 804 804 805
765 772 775 767 762 769 778 782 783 779 764 752 757 768 771 770 769 768 771 773 771 772 778 783 785 785 787 791 794 796 798 799 800 801 802 803 803 804 807 809 809 810 810 811 812 812 812 814 813 813 814 814 814 815 815 815 815 814 815 815 815 814 814 813 812 812 811 811 811 810 811 810 810 810 810 810 809 808 808 808 807 807 807 807 807 807
765 763 768 768 762 762 770 774 770 762 755 752 756 761 764 764 763 764 768 769 770 773 777 781 785 785 786 790 794 796 797 799 800 801 802 802 803 805 808 809 810 811 812 812 813 814 814 815 814 814 815 815 816 817 817 816 816 815 815 816 816 816 815 815 814 814 813 813 813 813 813 812 812 812 811 811 810 809 809 810 809 809 810 809 809 810
757 753 759 764 761 758 762 764 760 757 756 754 754 756 760 761 761 761 765 767 768 770 774 778 783 784 786 790 793 795 797 798 799 800 800 801 803 806 808 809 810 811 812 813 814 815 815 816 815 815 815 816 816 817 818 818 817 816 816 817 817 817 816 816 816 815 815 815 814 814 815 814 814 813 813 812 812 812 812 812 811 811 811 811 811 811
754 752 756 762 763 766 770 766 760 758 757 755 757 760 759 759 759 760 764 767 767 768 771 775 778 782 787 789 791 793 795 796 798 799 799 801 804 806 807 809 810 811 812 813 814 815 816 816 817 817 817 818 818 818 818 819 819 818 818 818 818 818 818 817 817 816 816 815 815 816 816 816 815 815 815 814 814 814 814 814 813 813 812 812 812 812
760 756 757 760 761 765 771 766 758 756 754 753 759 762 760 760 761 760 762 766 767 768 771 772 775 780 785 789 792 794 795 795 797 798 799 801 804 806 807 809 810 811 813 814 814 815 816 817 818 819 819 820 820 820 820 820 820 820 820 820 820 820 819 819 818 817 817 817 817 817 817 817 817 817 817 817 816 816 815 816 815 815 814 814 814 814
760 759 758 759 760 764 768 765 761 761 760 757 758 760 759 760 762 763 764 767 768 771 772 773 774 777 781 787 791 793 795 796 796 797 800 803 804 806 809 810 812 813 814 815 816 817 817 818 819 820 820 821 821 822 822 822 822 822 821 821 821 821 820 820 819 819 818 818 818 818 818 819 819 819 818 818 818 818 817 817 817 817 817 817 816 816
760 762 759 760 765 767 764 761 762 766 768 763 759 758 759 760 762 765 767 768 770 772 774 774 775 776 779 784 787 791 795 796 796 798 801 803 804 807 809 810 812 814 815 816 817 818 819 820 821 821 822 822 822 822 823 823 823 823 822 823 822 822 821 821 820 820 820 820 820 820 819 820 820 820 820 820 820 820 820 819 819 818 818 818 818 818
756 757 756 759 763 761 756 754 757 763 766 764 760 759 759 760 763 767 768 769 771 772 773 774 776 778 780 783 785 789 793 795 796 798 800 802 805 807 809 811 812 813 815 816 817 819 820 821 822 822 822 822 822 823 823 823 823 823 823 823 823 823 822 822 821 821 822 822 822 821 820 821 821 821 821 821 821 821 821 821 820 820 820 820 820 820
Wind_Speed
7 6 7 7 8 10 7 6 10 7 2 4 9 11 2 6 4 9 12 12 11 6 6 7 7 7 9 10 11 10 9 10 10 10 10 11 11 12 12 12 13 12 11 13 15 16 16 16 16 15 14 14 14 15 16 15 15 15 15 15 14 13 14 14 13 13 13 12 12 13 12 13 15 16 17 18 18 17 16 17 17 15 14 13 12 11
6 7 6 10 12 9 4 7 7 2 1 7 8 9 4 7 6 9 13 15 14 6 5 9 9 8 10 10 11 11 12 12 11 12 12 14 12 12 13 13 13 11 12 13 14 16 17 16 16 15 14 15 15 16 16 15 16 16 15 16 15 14 14 13 13 13 12 11 12 13 12 12 13 13 13 14 17 17 17 18 16 14 14 13 12 11
7 6 7 12 9 4 4 5 6 4 4 9 6 8 6 6 8 8 12 14 11 4 6 11 9 8 9 9 11 12 12 11 10 9 10 12 12 11 12 13 13 12 12 14 14 15 17 17 17 16 15 15 16 16 17 16 16 16 17 17 16 14 14 13 13 12 12 11 11 11 11 12 12 12 11 12 16 17 16 17 15 14 14 13 12 10
6 3 2 4 4 6 7 7 7 5 5 7 6 9 5 7 7 5 7 9 7 4 9 12 7 5 5 5 7 10 10 9 6 6 9 8 10 11 11 12 13 13 13 15 15 14 16 17 17 16 16 16 16 16 17 17 16 16 17 18 17 16 14 13 13 12 12 12 10 9 10 12 12 11 11 12 14 15 16 15 14 13 14 13 11 10
7 3 4 6 7 4 8 8 9 6 6 8 8 9 7 6 4 6 10 9 7 7 12 13 5 2 4 5 7 6 7 7 6 5 10 10 10 11 11 11 13 14 12 13 15 14 15 17 17 17 17 16 17 17 17 18 17 16 18 18 17 17 15 14 14 13 13 13 9 9 10 11 11 12 12 12 13 14 15 14 13 13 14 13 11 10
3 5 4 5 5 5 6 7 8 6 6 8 8 10 10 12 10 4 9 6 5 5 9 9 2 1 5 8 8 3 3 7 3 3 10 10 8 9 11 12 12 13 12 12 14 14 14 16 17 17 17 17 17 17 17 18 17 17 18 18 18 17 16 15 15 13 13 13 10 10 11 11 11 12 12 12 13 13 13 14 13 13 13 12 10 11
0 4 4 6 6 6 7 7 9 7 6 5 4 6 7 8 11 6 1 1 3 2 7 12 6 2 5 7 6 2 1 4 4 4 9 8 6 8 11 11 10 11 12 12 13 14 15 16 17 16 17 18 17 18 18 18 18 18 19 19 18 18 16 16 17 15 14 14 12 11 11 11 11 11 11 11 12 13 13 13 14 13 13 12 10 11
4 3 1 4 6 7 7 5 6 6 7 3 7 10 8 3 6 7 5 6 6 3 7 12 6 2 5 5 4 5 3 1 5 6 7 7 8 7 8 8 10 11 11 12 12 13 15 16 17 18 17 16 16 17 18 17 17 18 20 20 18 18 16 16 18 16 15 14 13 12 11 11 10 10 10 10 12 13 11 12 14 13 12 12 10 10
5 3 2 5 8 5 3 2 3 2 7 4 11 9 8 7 6 6 7 8 6 6 7 6 4 2 3 4 6 8 5 5 7 9 7 7 8 7 9 8 9 9 9 11 11 12 14 16 18 18 18 18 16 16 16 16 18 19 20 20 19 18 17 17 19 17 16 15 14 13 12 12 11 10 11 10 10 12 11 11 13 12 13 12 10 9
1 4 4 5 8 3 5 5 5 3 8 6 10 7 6 6 8 7 7 7 6 8 7 2 4 4 2 3 3 3 2 3 5 7 5 5 6 6 8 11 7 5 4 8 12 12 13 17 19 18 18 19 18 17 15 15 17 19 20 19 19 18 17 18 20 18 16 15 14 14 13 13 13 12 13 12 10 11 12 11 12 11 12 12 11 10
2 2 3 6 6 5 6 4 1 4 9 7 5 6 6 6 6 5 5 5 6 7 6 7 9 6 1 2 1 1 3 2 3 4 4 3 5 7 6 8 10 5 3 6 9 12 14 16 18 18 18 17 18 18 16 15 17 19 19 19 19 19 17 18 19 18 17 16 15 15 13 14 15 14 15 14 11 11 12 11 12 11 11 11 11 11
4 5 5 5 4 4 5 4 3 6 7 6 5 6 7 6 4 3 4 4 6 6 6 10 10 4 1 2 3 2 4 1 1 1 3 3 4 5 4 7 10 7 3 4 4 7 13 14 15 18 18 17 19 19 17 16 17 18 19 19 19 19 18 17 19 18 17 16 15 15 14 14 15 14 15 15 13 13 13 12 12 12 12 11 11 11
6 6 6 6 5 5 7 5 6 7 5 4 5 5 6 3 3 3 5 4 6 7 9 12 9 3 2 3 5 5 4 2 0 1 3 3 3 3 3 7 8 4 2 2 5 5 8 10 13 16 16 17 18 20 19 18 18 18 18 20 20 20 19 18 18 18 18 17 16 15 15 15 15 14 14 15 15 14 14 14 13 13 13 13 11 11
6 7 8 6 6 5 7 6 4 4 5 5 5 5 4 3 3 4 5 4 4 6 8 9 7 6 4 3 5 7 6 4 3 2 2 3 5 3 3 6 7 4 3 3 4 6 6 8 13 14 14 16 16 18 21 20 20 18 18 21 21 20 20 19 19 19 19 18 16 16 16 15 16 15 14 14 15 15 15 15 14 14 14 13 13 12
1 4 7 3 4 5 6 6 6 6 6 4 3 5 6 3 4 5 4 5 5 4 2 4 6 5 5 5 6 10 8 3 2 3 2 2 4 4 4 5 5 4 3 3 4 5 8 6 12 14 13 14 16 19 21 21 20 18 19 21 21 21 20 20 20 20 19 18 17 16 16 16 16 16 15 14 14 15 15 15 15 15 14 14 14 13
2 2 8 7 5 5 8 6 5 7 7 3 1 4 5 2 3 6 5 5 7 6 2 4 5 5 7 7 9 12 8 1 2 3 3 3 4 3 0 2 2 4 3 2 3 4 7 9 10 14 15 13 15 16 18 22 23 20 19 21 21 21 21 20 20 20 19 19 17 17 17 16 16 16 16 16 15 15 15 15 15 15 15 14 15 15
1 2 6 5 5 7 6 5 6 7 5 5 3 1 5 6 5 5 5 6 8 6 3 5 8 8 8 7 7 12 9 2 3 4 3 5 5 6 5 4 2 5 3 2 2 3 6 9 7 8 14 18 19 17 17 23 24 21 20 22 22 21 21 20 21 20 19 19 18 18 18 16 17 17 16 16 16 16 15 16 16 15 15 15 14 15
3 2 2 4 4 4 1 6 8 8 8 8 3 6 8 9 4 3 3 5 4 5 5 4 11 8 6 4 4 9 9 4 4 5 5 5 5 6 5 3 3 4 3 1 1 3 5 6 7 7 7 9 11 11 14 22 25 23 22 21 21 22 21 21 20 20 20 20 19 18 19 18 17 17 17 16 17 17 16 16 16 15 15 15 14 13
5 5 4 2 4 4 4 5 7 8 10 11 7 6 7 6 3 2 2 5 4 5 6 4 13 8 4 5 5 5 6 4 4 5 5 5 4 5 4 2 2 0 1 1 1 2 3 4 5 6 8 4 4 4 11 17 20 20 21 22 21 21 20 20 20 19 19 19 19 18 19 19 19 18 17 17 17 17 17 16 16 16 15 16 16 15
4 6 2 6 1 2 5 4 5 7 9 8 8 6 4 4 4 2 2 3 4 5 6 3 11 7 3 5 6 6 5 3 3 3 5 6 4 3 3 3 5 2 3 2 1 2 3 3 4 4 5 5 5 3 5 9 7 6 9 14 19 20 20 19 18 19 19 19 19 18 18 20 20 19 18 18 18 18 18 17 16 16 16 16 16 17
4 5 3 4 2 2 3 2 4 4 4 5 5 4 4 3 3 4 3 3 3 3 5 4 2 4 3 4 4 5 4 4 4 2 4 6 4 2 4 5 5 1 2 3 2 2 3 5 7 7 7 6 3 2 0 2 2 2 4 7 14 18 20 20 18 17 18 18 18 18 18 19 20 19 19 18 18 18 18 18 18 18 17 17 16 17
2 3 5 4 3 2 2 3 4 8 5 1 4 3 4 4 5 5 5 5 5 3 4 6 1 4 3 6 5 4 5 5 5 3 5 7 5 3 4 6 6 3 4 4 4 4 5 6 8 9 10 10 4 1 2 4 5 7 5 3 9 15 13 13 16 17 18 18 17 18 17 18 19 19 20 19 19 19 19 18 19 19 18 18 18 17
1 4 6 8 8 4 5 3 3 6 6 4 5 4 5 4 2 4 5 5 7 7 8 7 1 4 3 5 6 7 8 10 11 10 8 8 6 5 5 7 6 5 5 5 5 5 5 8 11 9 9 11 10 5 1 5 6 7 4 0 4 8 5 5 7 11 15 15 14 15 16 16 17 18 18 19 19 19 19 19 18 19 19 18 18 19
1 3 5 7 8 7 4 3 1 2 4 5 6 6 5 4 4 4 4 5 6 7 8 6 1 3 2 2 4 6 7 8 10 11 10 9 7 6 6 5 4 5 6 3 1 2 2 5 10 10 8 9 10 10 6 4 2 2 0 4 1 5 3 4 7 9 9 11 10 9 9 10 13 16 18 19 20 19 19 19 18 18 19 19 18 18
2 2 3 5 6 6 8 6 4 3 1 4 7 7 3 2 7 6 4 4 5 7 8 7 1 3 1 1 4 7 7 6 7 7 7 9 8 5 6 6 5 6 6 3 1 1 1 4 5 5 6 7 7 9 10 8 4 1 3 1 3 3 5 7 9 9 9 12 13 9 6 9 14 13 14 15 16 17 18 18 19 18 17 18 18 18
5 3 2 4 6 4 2 1 1 1 2 3 4 4 1 1 5 5 3 4 4 5 6 5 2 4 3 1 5 7 6 7 8 7 6 8 8 6 7 8 6 6 8 7 5 4 3 4 5 4 3 5 6 7 9 9 8 5 6 8 6 7 6 7 11 13 9 10 16 14 11 11 14 15 14 13 14 14 14 16 18 18 19 18 17 18
5 5 5 6 8 7 4 4 5 4 6 6 6 7 5 3 3 2 3 4 3 4 3 3 4 2 4 3 6 7 6 6 7 8 8 8 9 8 7 7 7 7 9 9 7 6 6 6 6 6 5 5 6 6 7 8 10 9 6 7 4 2 2 2 6 10 6 6 11 13 12 14 14 13 15 16 15 13 11 16 22 19 17 18 19 19
4 6 8 9 9 10 8 9 9 6 8 10 10 10 7 5 4 3 5 5 3 5 2 4 5 3 3 4 6 6 5 6 6 8 9 8 8 8 8 8 9 9 9 9 8 7 7 7 7 7 8 7 5 5 5 4 4 6 6 5 5 6 6 5 3 2 2 3 6 8 9 11 13 11 12 14 15 13 11 14 20 22 20 16 16 18
5 7 9 11 12 13 11 10 10 9 8 9 10 9 8 7 6 5 7 7 4 5 2 4 3 3 3 4 6 7 5 5 6 7 9 9 9 9 9 10 10 9 9 9 8 7 6 6 6 7 9 9 8 6 4 3 2 2 3 3 3 5 8 7 6 5 3 3 5 5 7 10 10 11 12 12 12 13 14 14 13 15 20 22 16 13
4 5 7 11 12 10 7 6 9 9 9 10 8 7 8 8 7 6 7 5 3 4 3 3 1 1 3 4 6 8 6 5 5 5 8 9 9 9 10 11 10 10 9 9 8 7 7 7 7 8 8 8 8 8 7 6 5 3 2 2 4 2 4 6 6 6 4 2 4 6 8 9 11 12 13 12 11 10 12 11 9 10 15 18 16 13
3 3 5 7 10 8 6 9 11 9 9 10 8 7 8 7 8 9 5 3 3 2 5 4 1 2 3 5 6 6 6 5 4 5 7 8 8 9 9 10 10 9 9 8 7 7 7 8 8 8 9 9 9 9 8 8 7 6 4 2 2 3 3 5 5 4 3 3 3 5 7 7 8 10 12 12 11 10 9 9 8 8 10 13 13 16
5 4 6 4 5 7 9 12 11 6 7 10 10 10 10 8 8 6 1 3 4 1 5 3 2 2 4 5 5 5 6 6 5 6 7 7 7 8 9 9 9 9 9 8 8 7 7 8 8 8 9 9 9 9 8 8 8 8 7 6 4 3 3 3 3 3 3 3 2 4 5 5 5 7 9 10 10 11 11 10 10 9 9 12 12 13
3 4 5 5 6 7 8 9 7 4 6 7 6 7 6 5 4 3 2 2 3 2 1 1 2 4 6 5 4 5 6 6 6 6 6 7 7 7 8 8 9 9 7 6 6 6 7 8 9 9 10 9 9 10 9 9 9 10 10 9 7 6 6 6 5 3 1 2 3 6 7 7 5 5 6 6 7 9 10 10 10 10 10 13 13 13
4 4 6 6 6 7 5 3 3 5 5 2 3 6 5 3 2 3 2 1 2 2 2 3 4 5 6 4 3 5 7 6 6 6 6 6 6 6 7 7 7 8 7 5 5 4 6 8 9 10 11 11 11 11 11 12 12 13 12 11 11 10 10 10 10 9 7 3 2 5 6 6 5 6 5 4 4 6 7 8 10 10 10 11 12 12
5 6 4 5 5 8 6 2 4 6 2 3 4 4 4 4 3 3 5 3 1 3 3 5 6 6 5 4 5 7 8 8 8 7 7 6 5 6 6 6 6 6 7 6 5 5 7 9 10 11 11 11 12 14 15 14 14 15 15 15 14 13 13 13 13 12 11 10 8 5 5 6 5 4 4 4 4 5 5 7 8 9 10 11 11 11
6 5 4 4 5 6 6 5 5 3 5 6 4 2 1 2 3 5 5 2 4 5 3 4 7 7 6 6 7 8 9 8 8 7 7 6 6 5 5 5 6 5 6 7 5 4 7 9 9 10 11 11 13 15 18 18 17 17 18 17 16 14 14 15 15 14 14 13 12 10 9 10 9 8 7 6 5 4 4 4 5 6 8 10 11 12
7 6 5 4 5 6 6 6 5 4 5 6 5 5 2 1 1 2 2 2 5 5 3 3 6 8 7 7 8 8 8 7 5 5 5 5 5 5 4 5 5 4 6 8 6 4 4 6 7 8 11 13 15 15 16 18 18 19 19 18 17 15 14 14 14 14 14 13 13 14 13 12 12 12 11 9 7 6 5 5 5 5 6 7 10 12
8 5 5 5 5 6 7 6 7 7 4 1 6 6 1 1 1 0 1 1 3 5 4 4 7 9 6 4 6 8 6 3 2 3 4 4 4 5 6 6 5 3 4 8 8 3 2 2 4 8 12 15 16 16 15 15 16 18 18 17 15 14 13 14 14 13 13 13 14 16 16 16 15 14 14 13 11 10 9 8 8 8 8 6 7 10
7 6 5 6 7 6 7 6 6 5 1 2 2 2 2 2 1 2 2 2 3 4 4 4 8 10 7 5 5 6 4 3 1 3 5 5 5 5 5 6 6 4 5 9 9 3 3 7 7 10 15 17 17 15 14 13 14 15 15 14 13 13 13 13 13 13 14 15 15 16 17 17 18 17 17 16 15 14 13 12 10 11 12 11 11 12
8 6 6 7 7 7 7 6 5 3 3 5 3 1 3 3 1 3 3 2 3 5 4 4 7 10 7 4 4 4 4 1 2 3 5 6 5 4 5 7 7 5 6 9 6 2 2 6 9 10 15 16 15 14 13 12 13 13 14 13 13 14 14 13 13 13 14 14 15 16 17 18 19 19 18 17 17 16 15 14 12 12 13 13 13 15
7 7 6 7 8 8 8 7 5 1 5 5 3 1 4 3 1 3 2 3 6 6 5 6 9 9 6 3 3 3 1 3 4 5 6 6 6 5 7 8 8 7 7 7 5 1 4 5 7 11 12 12 12 13 12 11 12 13 13 13 14 14 14 14 14 14 14 15 15 15 16 17 17 18 18 17 17 17 17 17 16 14 14 13 12 13
6 6 7 8 8 7 7 8 7 2 2 0 1 6 6 0 2 1 1 4 7 8 8 8 9 8 7 4 3 3 3 6 8 8 8 7 6 6 8 8 9 9 8 5 3 4 6 7 9 11 11 11 11 11 11 11 12 13 13 13 14 13 12 13 14 15 16 16 16 15 15 16 16 16 16 16 16 17 18 18 18 17 16 14 13 14
5 6 7 7 7 7 7 8 6 2 1 2 3 7 4 2 2 4 4 4 5 8 10 9 8 8 8 6 5 5 7 9 9 9 8 7 6 7 9 9 9 9 9 7 6 7 8 8 9 10 11 11 11 11 11 11 12 12 13 13 13 12 11 11 12 12 13 15 16 16 15 15 15 16 16 15 16 17 18 18 18 18 18 16 15 15
4 5 6 4 4 6 6 4 2 2 3 2 2 4 3 3 5 5 4 3 3 6 8 8 7 8 8 8 8 8 9 9 9 9 9 7 7 8 8 8 8 8 8 9 9 9 9 9 10 11 11 11 11 11 11 11 11 12 12 12 12 11 12 11 11 12 13 13 13 14 14 14 14 15 16 16 16 17 17 17 18 18 18 17 16 15
3 2 2 2 4 3 1 3 1 2 3 4 4 6 7 6 5 4 3 2 3 6 8 8 8 9 9 10 10 9 9 9 9 9 9 8 7 8 8 7 8 9 9 10 10 10 9 10 11 11 12 12 11 10 10 10 11 11 11 10 10 10 11 11 11 12 12 13 13 13 13 14 15 15 15 16 18 18 17 16 16 16 16 16 15 14
3 4 3 3 3 2 3 6 3 2 2 4 5 6 6 5 5 5 4 2 3 6 8 8 9 10 10 10 10 10 9 10 10 9 9 8 9 9 9 10 10 10 10 10 9 9 10 10 11 12 11 11 11 10 10 10 10 11 11 10 9 9 9 10 10 11 11 12 13 13 13 14 15 16 15 15 16 18 17 17 17 16 15 15 14 14
4 7 7 4 4 3 2 2 1 3 4 4 5 5 4 4 4 4 4 4 4 5 7 10 11 12 10 8 7 8 10 11 10 9 8 9 10 10 10 10 10 10 10 10 9 9 9 10 11 11 11 11 11 10 10 10 10 10 10 10 10 9 9 9 10 10 10 11 11 11 12 13 14 17 19 18 17 16 16 17 18 19 18 16 14 13
3 6 7 7 7 4 3 1 2 3 3 5 5 3 4 4 4 4 5 6 4 5 7 9 10 12 12 9 7 8 10 11 10 9 9 8 8 10 10 10 10 10 9 8 8 8 9 9 9 10 10 10 10 10 10 10 10 10 10 10 9 9 8 8 9 9 9 9 9 9 10 10 11 14 18 21 21 19 18 16 16 18 20 18 15 13
1 4 4 4 5 3 5 4 2 2 2 5 6 5 5 5 5 6 6 7 6 6 7 7 8 10 13 13 11 10 11 11 10 10 10 8 7 9 11 11 10 10 9 8 8 8 8 8 9 9 10 9 9 10 10 10 10 10 10 10 9 8 8 8 8 9 9 9 8 8 9 9 9 9 12 15 18 19 18 17 16 17 18 17 17 16
5 6 4 3 5 5 5 7 6 4 2 2 4 6 8 7 7 7 7 7 8 7 6 7 8 9 12 14 13 12 10 10 10 11 11 9 9 11 12 11 11 10 10 10 9 8 8 8 7 8 9 8 8 9 9 9 9 10 10 10 9 9 10 10 9 10 11 10 10 10 8 8 8 7 8 10 10 12 14 16 16 16 16 16 16 17
6 6 4 4 5 2 3 7 8 5 1 0 2 5 9 8 7 8 7 7 8 8 7 7 8 9 11 12 13 13 11 9 12 14 12 10 12 13 12 11 11 10 10 10 10 9 9 8 8 8 8 8 8 8 8 8 8 9 9 9 9 9 10 11 11 11 10 9 10 11 10 8 7 7 7 7 5 4 7 10 12 13 13 13 12 13
Wind_Direction
211 227 225 235 239 238 247 268 256 230 212 282 279 279 219 112 102 131 145 164 162 139 134 142 134 157 181 182 191 192 202 223 233 246 226 195 184 181 188 178 168 176 173 171 173 164 162 163 158 160 164 163 160 154 151 151 150 146 147 150 155 156 151 151 154 153 153 156 154 151 149 149 149 153 153 151 151 150 151 152 154 158 162 166 168 168
205 247 242 243 245 244 299 337 302 260 238 252 256 282 254 140 142 147 148 162 169 152 146 162 155 177 195 185 191 193 195 211 223 233 218 197 192 186 188 181 172 178 170 171 176 167 165 164 160 163 167 166 161 155 157 159 154 152 154 155 158 159 158 159 161 159 157 156 154 155 155 150 145 148 153 149 145 145 149 152 155 159 162 165 169 172
197 233 237 243 257 298 312 323 329 350 300 277 272 282 270 148 156 160 145 158 176 160 154 173 169 179 198 191 193 196 199 208 214 235 231 204 196 192 189 180 176 182 175 172 176 171 169 166 163 166 169 168 162 160 164 163 159 157 156 157 161 163 165 166 164 163 160 156 159 157 153 147 143 150 153 141 140 144 148 153 156 163 166 165 170 178
233 237 274 294 29 9 302 274 284 297 280 274 261 274 267 165 179 167 146 164 176 159 158 169 171 177 196 206 211 213 214 207 195 250 274 245 212 202 194 184 178 181 179 175 174 174 172 168 167 168 170 170 165 166 168 165 165 162 157 159 164 165 168 169 166 166 162 160 162 150 147 147 142 150 149 137 141 145 148 154 158 165 169 166 171 183
276 339 26 10 31 343 292 272 264 262 262 258 240 267 288 248 228 134 153 177 175 171 154 146 139 193 208 217 227 239 238 219 179 207 255 252 226 210 198 191 184 179 181 180 174 175 176 169 170 171 173 171 168 171 172 169 170 167 161 164 167 167 169 169 168 169 164 161 155 136 146 150 141 149 151 143 145 149 154 157 160 167 172 172 175 181
293 26 32 318 315 288 281 268 256 244 259 268 236 236 258 274 284 166 157 171 185 189 159 152 149 238 221 221 224 236 241 236 211 208 244 243 228 223 207 192 189 181 179 185 180 177 177 170 170 173 175 175 173 177 176 172 173 168 164 166 167 168 169 169 170 171 165 163 159 145 148 150 146 151 155 155 154 157 163 161 162 169 171 177 179 178
55 51 13 305 297 267 257 251 250 246 250 264 271 266 249 252 277 290 351 245 248 231 185 202 223 178 203 229 236 239 276 289 324 287 256 255 238 233 219 192 188 189 180 187 188 180 176 171 171 176 181 180 177 179 179 176 174 168 165 167 169 170 170 169 169 171 168 166 168 162 157 154 155 158 158 161 159 162 170 161 161 169 172 181 182 177
190 169 117 282 272 244 242 235 221 224 237 270 6 334 303 300 310 324 322 273 276 293 204 214 238 164 174 197 171 135 128 301 285 247 231 258 269 263 253 210 188 197 188 182 190 188 179 172 176 180 181 183 182 180 180 178 172 165 165 168 170 171 171 170 170 172 172 172 173 172 168 163 163 161 159 161 158 163 171 159 162 172 174 182 184 179
196 219 111 233 243 240 280 18 69 224 246 324 14 340 308 331 318 293 277 269 283 279 238 223 275 291 149 144 122 122 145 192 235 238 203 223 259 275 280 254 201 197 197 183 187 196 185 175 180 182 181 184 184 183 182 177 169 163 166 169 171 173 173 172 172 173 175 175 176 176 173 168 168 165 159 163 161 163 171 164 169 179 175 179 185 183
128 319 3 259 254 326 356 19 47 313 273 333 3 326 295 304 279 274 278 278 286 275 265 254 257 255 110 87 88 109 143 194 228 250 222 203 224 229 260 273 242 198 209 202 191 193 193 183 181 185 188 184 177 180 182 175 170 164 165 171 172 175 176 175 174 174 176 176 177 180 177 169 172 172 163 168 170 165 171 172 174 181 177 179 186 189
106 272 303 271 285 349 337 327 19 276 279 299 311 273 256 247 252 275 270 268 285 271 262 260 248 243 101 73 281 153 111 161 218 243 242 221 225 213 218 268 264 233 229 231 205 192 193 189 184 187 193 183 171 174 174 170 172 167 166 173 174 175 179 177 176 177 177 178 179 183 182 174 176 177 166 168 175 170 175 180 178 181 181 184 190 192
166 196 201 227 260 295 279 267 217 237 267 273 258 265 261 222 199 251 243 240 265 260 253 248 238 231 88 144 194 127 94 129 243 282 269 252 251 237 206 233 247 241 243 273 266 210 191 187 190 192 193 185 171 167 166 169 175 169 168 174 174 177 181 178 178 181 180 181 183 185 186 180 182 181 169 172 180 180 184 189 186 184 186 192 196 196
190 179 175 187 194 242 259 241 214 214 224 239 239 258 265 224 170 246 257 238 236 243 242 233 216 145 88 122 140 132 118 127 157 282 284 294 287 280 268 250 245 245 246 266 300 267 204 188 196 196 190 185 172 163 165 171 173 171 172 174 176 179 182 181 181 184 185 185 187 188 187 184 188 188 178 179 186 188 189 193 192 188 191 197 200 202
176 162 175 187 168 196 249 259 248 218 213 223 226 240 247 229 232 247 259 266 245 248 240 213 172 125 133 149 126 113 91 62 28 337 314 310 290 267 248 251 251 266 269 242 265 280 251 198 195 199 186 184 182 168 167 170 171 174 174 174 179 181 182 184 184 186 189 190 189 190 190 187 190 193 190 187 189 191 192 196 197 193 193 197 201 204
164 170 175 148 115 174 247 288 326 316 271 238 204 256 271 250 259 273 280 293 290 304 315 154 140 134 154 153 110 90 80 68 24 10 17 341 306 285 226 221 240 257 254 242 242 277 290 248 204 198 181 186 197 181 168 167 168 172 174 175 178 181 184 186 187 188 190 192 193 192 193 192 191 193 195 196 195 194 194 197 200 199 197 197 199 204
310 128 128 109 114 224 277 324 326 289 280 297 212 249 282 269 259 269 270 300 302 298 325 108 101 98 122 112 92 95 101 149 93 52 19 30 23 2 242 182 280 263 217 224 254 268 297 291 240 206 185 186 205 195 173 167 170 172 176 180 181 182 187 186 187 190 190 192 195 195 196 196 194 194 196 199 200 199 199 199 201 203 205 206 202 201
296 95 128 159 194 216 270 314 288 274 295 308 291 325 314 304 307 292 287 334 328 294 258 125 104 101 110 100 101 115 120 135 105 92 42 36 45 43 58 72 350 278 238 195 259 271 280 294 294 237 206 195 200 202 178 166 174 181 178 180 182 184 189 188 188 191 191 193 196 197 201 200 199 199 199 200 201 202 205 205 205 205 209 214 209 200
337 311 174 238 248 163 222 298 280 284 292 278 305 17 330 299 334 3 308 320 316 279 276 138 124 123 113 109 131 115 109 119 113 101 79 60 60 70 83 121 171 234 245 194 279 310 300 307 344 334 273 215 196 210 194 172 173 182 182 183 185 185 188 189 189 192 192 193 196 198 202 205 204 203 203 204 201 203 209 207 206 207 210 213 214 211
331 280 159 152 289 162 167 262 255 246 256 264 293 338 314 293 340 38 282 290 281 272 290 98 109 109 108 131 144 98 88 106 97 93 100 87 69 83 111 147 108 128 279 301 289 23 7 334 352 345 325 345 29 304 232 198 179 180 185 184 185 188 190 190 190 194 195 194 197 200 202 206 209 208 208 209 204 204 210 209 206 209 212 211 213 219
305 283 160 133 290 217 176 219 253 222 211 237 273 279 270 283 294 260 223 281 298 297 298 79 97 91 85 108 117 102 95 100 86 93 106 97 89 87 95 87 70 29 304 296 294 84 79 43 33 7 350 11 19 353 241 215 193 194 207 195 189 189 190 193 194 193 195 197 199 202 202 204 210 212 212 213 209 208 211 212 210 211 214 213 212 216
260 284 266 166 172 263 198 173 324 312 180 202 256 260 257 269 281 277 269 278 275 275 287 297 77 96 84 64 80 100 105 105 104 116 103 98 105 101 78 77 89 80 337 343 323 7 42 44 48 37 19 10 323 297 200 209 184 199 256 242 213 199 191 194 200 196 195 201 201 201 204 204 208 213 214 215 215 213 213 213 213 213 214 214 214 214
260 294 299 277 237 246 96 90 350 345 13 334 275 299 319 334 353 326 306 304 290 287 311 300 325 97 57 15 22 21 14 42 60 62 86 85 70 54 63 61 59 50 31 12 331 348 8 12 32 40 23 9 349 251 203 216 214 207 221 246 217 212 203 197 204 202 197 201 204 203 208 208 206 210 214 216 218 217 216 215 214 215 216 215 216 216
357 318 305 287 282 323 29 51 334 331 345 322 293 305 312 313 319 283 286 307 307 325 334 309 268 102 60 28 30 18 11 16 18 19 33 53 42 13 31 57 62 63 57 26 347 350 1 357 8 24 22 12 4 359 119 174 214 226 225 43 177 201 244 295 264 235 207 199 205 208 211 214 211 211 216 218 220 221 220 218 215 215 217 220 220 218
180 270 275 277 293 306 283 218 147 346 310 295 281 265 261 291 321 302 303 320 305 314 322 301 256 97 65 41 54 55 49 34 22 19 17 32 39 9 6 32 48 65 80 83 350 341 44 29 11 4 11 19 10 359 21 94 190 236 22 356 21 162 202 273 276 271 234 201 205 214 219 232 229 219 219 223 223 223 225 224 221 219 218 221 223 221
264 238 243 267 280 265 240 211 153 120 241 253 255 243 207 316 316 303 302 307 294 305 315 305 317 88 49 351 80 75 69 68 56 39 23 35 43 8 355 10 14 41 68 95 92 2 74 101 60 11 3 20 25 7 11 34 38 50 107 21 303 228 213 211 206 230 243 217 210 217 230 270 281 262 239 239 240 236 234 231 225 222 223 224 226 227
299 308 296 278 272 271 303 316 254 320 302 253 253 273 227 228 274 283 294 282 276 302 314 315 9 115 149 132 83 69 58 68 68 59 51 55 59 39 18 18 19 41 50 44 37 17 14 72 80 63 20 12 31 25 9 23 36 53 133 159 204 224 212 199 200 214 236 224 215 219 218 237 271 274 253 255 278 285 277 266 253 233 223 225 229 233
300 303 296 287 284 294 323 313 290 279 277 282 303 310 307 285 265 282 290 281 300 317 321 18 26 100 146 113 75 67 55 60 62 60 59 58 63 61 44 28 27 42 49 40 34 26 25 44 54 53 46 24 24 34 19 13 18 27 75 125 145 177 170 166 197 205 212 211 212 222 228 219 224 240 240 241 263 281 285 292 293 278 247 231 227 230
286 275 267 262 264 272 271 270 271 262 267 284 299 304 309 316 309 294 278 278 303 301 301 60 14 360 114 109 89 82 69 63 60 56 61 65 66 65 60 49 38 38 49 53 47 35 26 34 38 35 38 32 19 32 42 26 360 2 22 45 54 50 48 46 71 161 211 245 224 225 240 235 223 231 245 244 247 254 261 282 296 300 298 279 244 232
262 263 263 261 254 246 241 253 265 266 275 280 285 296 303 298 297 291 282 287 305 302 302 92 33 11 93 117 104 93 81 74 66 59 69 76 74 67 62 55 44 35 43 53 60 60 48 39 35 28 25 21 14 16 28 45 39 327 331 342 9 46 50 50 56 56 32 335 307 275 266 266 258 256 263 264 263 263 264 269 273 282 299 304 286 251
243 262 270 284 285 263 235 259 273 266 271 276 274 279 280 284 290 284 286 307 339 329 354 75 76 71 99 101 104 111 113 97 86 84 84 80 77 74 65 55 47 36 33 40 47 55 58 52 43 40 33 19 14 15 13 20 23 359 330 303 288 308 23 27 32 40 39 357 318 296 285 285 282 278 279 281 280 270 261 264 260 252 268 286 295 290
178 289 291 295 304 298 267 265 264 254 261 269 265 257 255 267 276 268 279 337 335 10 59 72 134 178 125 99 105 121 123 112 106 95 85 77 75 77 70 62 54 39 28 29 32 36 49 55 47 43 41 32 26 27 22 19 22 15 16 21 309 290 303 324 340 353 336 311 307 297 292 294 291 286 287 288 284 278 272 265 255 247 250 261 288 305
159 279 292 274 276 276 256 245 240 238 262 266 263 258 242 232 256 265 89 36 319 37 113 143 226 165 129 125 131 126 118 115 103 88 85 79 74 79 80 78 71 56 37 26 27 28 33 45 46 40 38 35 30 30 28 27 33 34 33 41 39 17 355 332 317 307 293 282 302 312 302 297 295 287 287 290 287 282 281 270 254 254 259 255 268 294
184 264 277 264 265 266 245 227 222 238 262 261 277 289 254 212 249 287 103 110 293 288 209 268 19 98 127 145 150 125 112 103 85 81 93 94 89 89 88 85 84 79 63 32 28 36 33 35 42 43 40 36 31 32 40 46 49 48 47 52 59 64 69 70 72 73 88 247 281 301 296 284 286 293 291 295 296 285 281 278 271 267 259 251 253 264
215 250 280 283 282 282 266 188 206 260 263 254 27 8 360 29 12 324 318 334 354 32 53 55 74 113 136 145 136 111 100 94 91 90 92 94 96 92 85 84 87 90 87 58 26 35 45 40 47 53 46 36 32 36 48 56 58 56 53 58 66 71 77 78 75 71 64 49 337 304 305 307 304 304 306 312 318 306 295 298 302 295 275 262 263 267
214 206 247 273 274 279 279 222 231 257 241 103 72 31 351 350 348 291 265 254 98 77 77 91 98 104 111 112 110 105 100 101 106 105 94 83 82 85 88 87 80 79 83 69 34 29 46 42 47 61 57 41 35 42 52 60 64 62 57 56 59 60 63 67 66 62 53 46 43 33 24 26 13 339 332 335 336 333 326 327 326 309 284 272 273 275
264 242 233 238 247 268 274 262 255 223 155 158 152 116 26 324 299 269 249 189 98 74 58 88 106 110 112 110 108 109 112 110 106 105 101 89 80 79 84 89 84 74 75 74 57 36 36 32 39 61 70 61 48 47 54 59 62 63 60 57 55 51 50 54 55 52 48 42 37 40 48 54 53 50 42 26 11 360 350 349 336 308 287 281 278 271
245 276 279 246 234 247 257 259 257 233 209 200 151 113 87 310 281 281 296 57 83 93 86 76 90 90 88 102 115 119 121 115 105 107 105 96 93 91 84 83 81 72 70 71 68 64 49 30 33 55 68 68 59 51 54 60 62 62 59 54 50 46 45 47 46 46 49 47 43 45 51 56 57 56 53 47 39 28 19 14 5 344 318 304 299 292
207 228 270 275 256 246 251 259 265 265 265 95 103 112 124 339 25 209 200 125 103 110 106 92 92 87 84 123 138 132 132 136 142 141 130 120 113 104 101 100 92 86 83 69 58 75 121 65 45 66 73 71 65 53 48 55 65 66 62 57 51 47 46 45 42 41 45 47 47 47 51 54 57 56 53 48 43 38 34 30 29 25 16 359 342 331
231 200 218 263 271 265 260 249 254 266 243 118 125 138 125 76 7 252 205 154 113 103 102 107 107 107 121 156 149 151 186 212 177 159 154 145 132 108 105 114 115 119 101 78 60 35 181 169 146 99 80 76 74 66 55 54 61 68 71 69 64 57 52 48 44 41 43 46 46 48 51 54 55 54 52 48 42 37 33 28 29 32 32 34 29 14
251 227 208 233 250 262 267 255 255 276 120 141 185 203 96 88 275 259 246 191 148 124 108 98 98 105 123 146 146 180 235 274 108 160 161 148 140 119 106 111 120 127 106 97 95 338 275 160 140 93 72 74 76 72 67 64 63 68 72 70 65 60 53 48 46 45 45 47 49 50 51 53 54 53 50 48 45 42 38 32 28 30 34 37 34 26
243 244 235 237 237 237 246 253 258 267 108 137 189 139 96 98 257 266 252 152 143 133 117 103 99 108 131 153 158 181 240 62 108 143 143 139 142 131 111 102 99 92 80 88 116 85 25 60 78 72 74 84 85 78 71 66 63 64 66 65 62 59 55 50 49 48 47 48 50 51 52 53 54 53 49 48 49 47 44 42 39 38 41 44 47 45
237 241 238 240 244 242 242 248 245 224 79 102 89 73 71 77 245 230 136 132 131 133 132 120 111 124 149 169 179 166 117 111 132 140 134 136 145 137 126 119 113 107 104 107 116 101 81 64 61 69 73 75 78 78 72 67 63 60 58 58 58 57 55 52 48 47 48 50 48 48 51 52 54 53 51 51 53 52 48 46 46 48 53 58 61 60
227 240 238 228 230 236 240 249 245 203 147 239 119 79 37 315 99 113 144 155 140 141 140 132 131 144 153 153 149 141 130 133 143 141 135 141 137 118 114 123 125 123 129 135 117 98 97 88 76 76 73 68 70 74 71 68 66 62 56 51 49 51 51 50 47 47 49 51 52 53 52 52 54 55 53 51 53 55 53 50 49 48 50 54 55 55
230 243 251 244 247 241 231 247 274 141 135 152 118 92 79 90 103 124 159 159 148 144 129 119 135 151 147 140 142 147 146 145 145 140 141 150 141 118 111 117 114 100 93 93 88 85 91 94 92 89 83 77 74 72 69 68 68 69 64 54 48 48 50 49 50 53 50 48 52 57 57 57 56 55 54 53 52 52 49 46 47 47 47 51 55 56
252 240 256 304 312 296 147 110 97 182 136 105 97 108 116 124 137 160 173 157 146 135 121 122 139 146 144 145 148 153 157 153 150 152 154 154 144 135 131 127 117 106 95 88 85 86 87 89 93 94 91 88 84 76 70 67 68 72 73 67 57 53 54 53 52 55 56 52 50 52 54 57 56 54 55 54 51 51 48 44 43 43 44 46 51 56
230 238 254 283 288 282 113 114 138 209 139 95 94 108 122 148 161 162 163 149 120 119 127 139 144 141 144 151 154 157 160 157 156 162 160 145 136 138 138 133 129 126 119 110 104 99 92 84 81 81 82 83 84 83 79 69 62 62 66 70 67 59 58 59 55 55 58 56 54 53 53 53 52 51 53 55 53 50 48 46 46 46 45 45 45 46
238 238 240 249 248 231 159 131 216 238 202 142 112 114 141 161 162 149 136 126 114 115 127 139 148 147 146 151 155 153 155 158 163 165 154 139 136 143 144 139 134 127 120 117 115 108 99 91 86 81 75 70 69 71 76 73 65 58 59 63 65 63 58 57 57 58 57 56 55 54 54 58 61 59 57 59 61 59 52 47 46 48 48 47 45 43
278 240 227 231 235 206 131 110 290 267 199 146 131 151 169 156 142 124 119 119 115 110 116 131 148 150 145 151 166 161 155 161 166 158 144 138 141 143 139 130 121 115 111 109 106 101 95 92 93 90 84 78 72 67 68 71 70 66 62 59 61 64 58 52 55 59 56 56 59 57 55 60 69 71 67 63 61 62 62 56 51 52 52 50 49 49
228 250 249 247 234 169 129 138 194 250 186 156 161 172 161 146 138 126 124 132 131 128 133 143 153 148 141 147 161 163 156 158 158 148 142 142 144 141 137 133 129 125 121 112 104 101 100 98 98 96 91 87 84 77 71 69 67 67 66 61 57 56 47 39 51 62 55 46 49 59 64 63 62 70 76 71 65 63 66 67 66 63 61 60 58 57
214 240 245 234 234 225 180 166 175 204 210 178 184 169 146 141 144 137 141 151 144 139 149 153 148 138 133 140 152 155 152 154 152 145 142 146 149 145 143 142 139 135 131 125 119 117 114 108 105 105 101 96 92 87 80 74 70 67 66 62 57 53 40 28 36 57 59 46 33 30 43 62 64 61 69 74 72 68 69 73 75 72 69 71 70 67
217 242 255 255 261 280 134 153 172 200 203 54 229 179 146 141 153 154 157 157 143 143 158 155 141 134 133 139 146 145 147 152 149 144 144 148 148 147 146 146 144 142 141 139 136 132 126 120 114 109 106 102 99 93 86 81 75 70 66 60 54 53 48 36 35 47 55 51 36 22 25 47 58 58 69 77 83 95 93 88 85 81 79 79 75 71